This is the latest recevied weather packets stored in our database for station/object VK2XSE. If no packets are shown the sender has not sent any weather packets the latest 10 day(s).
| Time | Temp. | Humidity | Pressure | Rain* | Wind** | Luminosity | Snow |
|---|---|---|---|---|---|---|---|
| 1777684517 | 25° C | 44% | 1020.5 hPa | 0 mm | - | 486 W/m² | - |
| 1777683917 | 24.44° C | 47% | 1020.7 hPa | 0 mm | - | 453 W/m² | - |
| 1777683317 | 23.33° C | 49% | 1020.9 hPa | 0 mm | - | 395 W/m² | - |
| 1777682717 | 23.33° C | 50% | 1021.1 hPa | 0 mm | - | 382 W/m² | - |
| 1777682117 | 22.22° C | 50% | 1021.1 hPa | 0 mm | - | 371 W/m² | - |
| 1777681517 | 22.22° C | 51% | 1021.1 hPa | 0 mm | - | 291 W/m² | - |
| 1777680917 | 22.22° C | 51% | 1021.2 hPa | 0 mm | - | 255 W/m² | - |
| 1777680317 | 22.22° C | 50% | 1021.4 hPa | 0 mm | - | 252 W/m² | - |
| 1777679717 | 22.78° C | 51% | 1021.5 hPa | 0 mm | - | 343 W/m² | - |
| 1777679117 | 22.22° C | 51% | 1021.5 hPa | 0 mm | - | 349 W/m² | - |
| 1777678517 | 21.67° C | 52% | 1021.6 hPa | 0 mm | - | 377 W/m² | - |
| 1777677917 | 21.11° C | 55% | 1021.6 hPa | 0 mm | - | 310 W/m² | - |
| 1777677317 | 20.56° C | 56% | 1021.7 hPa | 0 mm | - | 273 W/m² | - |
| 1777676717 | 20° C | 57% | 1021.7 hPa | 0 mm | - | 215 W/m² | - |
| 1777676117 | 19.44° C | 58% | 1021.8 hPa | 0 mm | - | 199 W/m² | - |
| 1777675517 | 18.89° C | 60% | 1021.7 hPa | 0 mm | - | 233 W/m² | - |
| 1777674917 | 18.89° C | 60% | 1021.6 hPa | 0 mm | - | 136 W/m² | - |
| 1777674318 | 18.33° C | 61% | 1021.5 hPa | 0 mm | - | 102 W/m² | - |
| 1777673717 | 17.78° C | 62% | 1021.4 hPa | 0 mm | - | 78 W/m² | - |
| 1777673117 | 17.78° C | 62% | 1021.4 hPa | 0 mm | - | 73 W/m² | - |
| 1777672517 | 17.22° C | 63% | 1021.3 hPa | 0 mm | - | 65 W/m² | - |
| 1777671917 | 17.22° C | 63% | 1021.1 hPa | 0 mm | - | 60 W/m² | - |
| 1777671317 | 16.67° C | 63% | 1021.1 hPa | 0 mm | - | 46 W/m² | - |
| 1777670717 | 16.67° C | 64% | 1021 hPa | 0 mm | - | 28 W/m² | - |
| 1777670117 | 16.11° C | 64% | 1021 hPa | 0 mm | - | 21 W/m² | - |
* Rain latest hour (hover to see other rain measurements)
** Current wind speed in m/s (hover to see current wind gust speed)